Time,TemperatureF,DewpointF,PressureIn,WindDirection,WindDirectionDegrees,WindSpeedMPH,WindSpeedGustMPH,Humidity,HourlyPrecipIn,Conditions,Clouds,dailyrainin,SoftwareType,DateUTC
2013-06-07 00:00:00,72.3,53.7,29.69,WNW,294,0.0,0.0,52,0.00,CLR,,0.00,WeatherDisplay:10.37,2013-06-07 07:00:00,
2013-06-07 00:05:00,72.1,53.5,29.68,WNW,294,0.0,0.0,52,0.00,CLR,,0.00,WeatherDisplay:10.37,2013-06-07 07:05:00,
2013-06-07 00:10:00,72.1,53.5,29.69,WNW,294,0.0,0.0,52,0.00,CLR,,0.00,WeatherDisplay:10.37,2013-06-07 07:10:00,
2013-06-07 00:15:00,72.1,53.5,29.69,WNW,294,0.0,0.0,52,0.00,CLR,,0.00,WeatherDisplay:10.37,2013-06-07 07:15:00,
2013-06-07 00:20:00,72.1,53.5,29.69,WNW,294,0.0,0.0,52,0.00,CLR,,0.00,WeatherDisplay:10.37,2013-06-07 07:20:00,
2013-06-07 00:25:00,72.1,53.0,29.69,WNW,294,0.0,0.0,51,0.00,CLR,,0.00,WeatherDisplay:10.37,2013-06-07 07:25:00,
2013-06-07 00:30:00,72.1,53.0,29.69,WNW,294,0.0,0.0,51,0.00,CLR,,0.00,WeatherDisplay:10.37,2013-06-07 07:30:00,
2013-06-07 00:35:00,72.1,53.0,29.69,WNW,294,0.0,0.0,51,0.00,CLR,,0.00,WeatherDisplay:10.37,2013-06-07 07:35:00,
2013-06-07 00:40:00,72.0,52.8,29.69,WNW,294,0.0,0.0,51,0.00,CLR,,0.00,WeatherDisplay:10.37,2013-06-07 07:40:00,
2013-06-07 00:45:00,72.0,52.8,29.69,WNW,294,0.0,0.0,51,0.00,CLR,,0.00,WeatherDisplay:10.37,2013-06-07 07:45:00,
2013-06-07 00:50:00,72.0,52.8,29.69,WNW,294,0.0,0.0,51,0.00,CLR,,0.00,WeatherDisplay:10.37,2013-06-07 07:50:00,
2013-06-07 00:55:00,72.0,52.8,29.69,WNW,294,0.0,0.0,51,0.00,CLR,,0.00,WeatherDisplay:10.37,2013-06-07 07:55:00,
2013-06-07 01:00:00,72.0,52.8,29.69,WNW,294,0.0,0.0,51,0.00,CLR,,0.00,WeatherDisplay:10.37,2013-06-07 08:00:00,
2013-06-07 01:05:00,71.8,52.7,29.69,WNW,294,0.0,0.0,51,0.00,CLR,,0.00,WeatherDisplay:10.37,2013-06-07 08:05:00,
2013-06-07 01:10:00,71.8,52.7,29.68,WNW,294,0.0,0.0,51,0.00,CLR,,0.00,WeatherDisplay:10.37,2013-06-07 08:10:00,
2013-06-07 01:15:00,71.8,52.7,29.69,WNW,294,0.0,0.0,51,0.00,CLR,,0.00,WeatherDisplay:10.37,2013-06-07 08:15:00,
2013-06-07 01:20:00,71.8,52.7,29.69,WNW,294,0.0,0.0,51,0.00,CLR,,0.00,WeatherDisplay:10.37,2013-06-07 08:20:00,
2013-06-07 01:25:00,71.8,52.7,29.69,WNW,294,0.0,0.0,51,0.00,CLR,,0.00,WeatherDisplay:10.37,2013-06-07 08:25:00,
2013-06-07 01:30:00,71.6,52.5,29.69,WNW,294,0.0,0.0,51,0.00,CLR,,0.00,WeatherDisplay:10.37,2013-06-07 08:30:00,
2013-06-07 01:35:00,71.4,52.3,29.69,WNW,294,0.0,0.0,51,0.00,CLR,,0.00,WeatherDisplay:10.37,2013-06-07 08:35:00,
2013-06-07 01:40:00,71.4,51.8,29.70,WNW,294,0.0,0.0,50,0.00,CLR,,0.00,WeatherDisplay:10.37,2013-06-07 08:40:00,
2013-06-07 01:45:00,71.4,51.8,29.70,WNW,294,0.0,0.0,50,0.00,CLR,,0.00,WeatherDisplay:10.37,2013-06-07 08:45:00,
2013-06-07 01:50:00,71.4,51.8,29.70,WNW,294,0.0,0.0,50,0.00,CLR,,0.00,WeatherDisplay:10.37,2013-06-07 08:50:00,
2013-06-07 01:55:00,71.4,51.8,29.69,WNW,294,0.0,0.0,50,0.00,CLR,,0.00,WeatherDisplay:10.37,2013-06-07 08:55:00,
2013-06-07 02:00:00,71.4,51.8,29.69,WNW,294,0.0,0.0,50,0.00,CLR,,0.00,WeatherDisplay:10.37,2013-06-07 09:00:00,
2013-06-07 02:05:00,71.2,51.6,29.69,WNW,294,0.0,0.0,50,0.00,CLR,,0.00,WeatherDisplay:10.37,2013-06-07 09:05:00,
2013-06-07 02:10:00,71.2,51.6,29.69,WNW,294,0.0,0.0,50,0.00,CLR,,0.00,WeatherDisplay:10.37,2013-06-07 09:10:00,
2013-06-07 02:15:00,71.2,51.6,29.70,WNW,294,0.0,0.0,50,0.00,CLR,,0.00,WeatherDisplay:10.37,2013-06-07 09:15:00,
2013-06-07 02:20:00,71.2,51.6,29.70,WNW,294,0.0,0.0,50,0.00,CLR,,0.00,WeatherDisplay:10.37,2013-06-07 09:20:00,
2013-06-07 02:25:00,71.2,51.6,29.71,WNW,294,0.0,0.0,50,0.00,CLR,,0.00,WeatherDisplay:10.37,2013-06-07 09:25:00,
2013-06-07 02:30:00,71.2,51.6,29.71,WNW,294,0.0,0.0,50,0.00,CLR,,0.00,WeatherDisplay:10.37,2013-06-07 09:30:00,
2013-06-07 02:35:00,70.9,51.3,29.71,WNW,294,0.0,0.0,50,0.00,CLR,,0.00,WeatherDisplay:10.37,2013-06-07 09:35:00,
2013-06-07 02:40:00,70.9,51.3,29.70,WNW,294,0.0,0.0,50,0.00,CLR,,0.00,WeatherDisplay:10.37,2013-06-07 09:40:00,
2013-06-07 02:45:00,70.9,51.3,29.70,WNW,294,0.0,0.0,50,0.00,CLR,,0.00,WeatherDisplay:10.37,2013-06-07 09:45:00,
2013-06-07 02:50:00,70.9,51.3,29.70,WNW,294,0.0,0.0,50,0.00,CLR,,0.00,WeatherDisplay:10.37,2013-06-07 09:50:00,
2013-06-07 02:55:00,70.9,51.3,29.71,WNW,294,0.0,0.0,50,0.00,CLR,,0.00,WeatherDisplay:10.37,2013-06-07 09:55:00,
2013-06-07 03:00:00,70.7,51.1,29.71,WNW,294,0.0,0.0,50,0.00,CLR,,0.00,WeatherDisplay:10.37,2013-06-07 10:00:00,
2013-06-07 03:05:00,70.7,51.1,29.71,WNW,294,0.0,0.0,50,0.00,CLR,,0.00,WeatherDisplay:10.37,2013-06-07 10:05:00,
2013-06-07 03:10:00,70.7,51.1,29.71,WNW,294,0.0,0.0,50,0.00,CLR,,0.00,WeatherDisplay:10.37,2013-06-07 10:10:00,
2013-06-07 03:15:00,70.5,51.0,29.71,WNW,294,0.0,0.0,50,0.00,CLR,,0.00,WeatherDisplay:10.37,2013-06-07 10:15:00,
2013-06-07 03:20:00,70.5,51.0,29.71,WNW,294,0.0,0.0,50,0.00,CLR,,0.00,WeatherDisplay:10.37,2013-06-07 10:20:00,
2013-06-07 03:25:00,70.5,51.0,29.70,WNW,294,0.0,0.0,50,0.00,CLR,,0.00,WeatherDisplay:10.37,2013-06-07 10:25:00,
2013-06-07 03:30:00,70.5,51.0,29.71,WNW,294,0.0,0.0,50,0.00,CLR,,0.00,WeatherDisplay:10.37,2013-06-07 10:30:00,
2013-06-07 03:35:00,70.3,50.8,29.71,WNW,294,0.0,0.0,50,0.00,CLR,,0.00,WeatherDisplay:10.37,2013-06-07 10:35:00,
2013-06-07 03:40:00,70.3,50.8,29.71,WNW,294,0.0,0.0,50,0.00,CLR,,0.00,WeatherDisplay:10.37,2013-06-07 10:40:00,
2013-06-07 03:45:00,70.3,50.8,29.71,WNW,294,0.0,0.0,50,0.00,CLR,,0.00,WeatherDisplay:10.37,2013-06-07 10:45:00,
2013-06-07 03:50:00,70.2,50.6,29.72,WNW,294,0.0,0.0,50,0.00,CLR,,0.00,WeatherDisplay:10.37,2013-06-07 10:50:00,
2013-06-07 03:55:00,70.2,50.6,29.72,WNW,294,0.0,0.0,50,0.00,CLR,,0.00,WeatherDisplay:10.37,2013-06-07 10:55:00,
2013-06-07 04:00:00,70.2,50.6,29.71,WNW,294,0.0,0.0,50,0.00,CLR,,0.00,WeatherDisplay:10.37,2013-06-07 11:00:00,
2013-06-07 04:05:00,70.0,50.5,29.71,WNW,294,0.0,0.0,50,0.00,CLR,,0.00,WeatherDisplay:10.37,2013-06-07 11:05:00,
2013-06-07 04:10:00,70.0,50.5,29.72,WNW,294,0.0,0.0,50,0.00,CLR,,0.00,WeatherDisplay:10.37,2013-06-07 11:10:00,
2013-06-07 04:15:00,70.0,50.5,29.72,WNW,294,0.0,0.0,50,0.00,CLR,,0.00,WeatherDisplay:10.37,2013-06-07 11:15:00,
2013-06-07 04:20:00,70.0,50.5,29.72,WNW,294,0.0,0.0,50,0.00,CLR,,0.00,WeatherDisplay:10.37,2013-06-07 11:20:00,
2013-06-07 04:25:00,70.0,51.0,29.72,WNW,294,0.0,0.0,51,0.00,CLR,,0.00,WeatherDisplay:10.37,2013-06-07 11:25:00,
2013-06-07 04:30:00,69.6,50.7,29.71,WNW,294,0.0,0.0,51,0.00,CLR,,0.00,WeatherDisplay:10.37,2013-06-07 11:30:00,
2013-06-07 04:35:00,69.6,50.7,29.71,WNW,294,0.0,0.0,51,0.00,CLR,,0.00,WeatherDisplay:10.37,2013-06-07 11:35:00,
2013-06-07 04:40:00,69.6,50.7,29.71,WNW,294,0.0,0.0,51,0.00,CLR,,0.00,WeatherDisplay:10.37,2013-06-07 11:40:00,
2013-06-07 04:45:00,69.6,50.7,29.71,WNW,294,0.0,0.0,51,0.00,CLR,,0.00,WeatherDisplay:10.37,2013-06-07 11:45:00,
2013-06-07 04:50:00,69.6,50.7,29.72,WNW,294,0.0,0.0,51,0.00,CLR,,0.00,WeatherDisplay:10.37,2013-06-07 11:50:00,
2013-06-07 04:55:00,69.6,50.7,29.72,WNW,294,0.0,0.0,51,0.00,CLR,,0.00,WeatherDisplay:10.37,2013-06-07 11:55:00,
2013-06-07 05:00:00,69.4,50.5,29.72,WNW,294,0.0,0.0,51,0.00,CLR,,0.00,WeatherDisplay:10.37,2013-06-07 12:00:00,
2013-06-07 05:05:00,69.4,50.5,29.72,WNW,294,0.0,0.0,51,0.00,CLR,,0.00,WeatherDisplay:10.37,2013-06-07 12:05:00,
2013-06-07 05:10:00,69.4,50.5,29.72,WNW,294,0.0,0.0,51,0.00,CLR,,0.00,WeatherDisplay:10.37,2013-06-07 12:10:00,
2013-06-07 05:15:00,69.3,50.4,29.72,WNW,294,0.0,0.0,51,0.00,CLR,,0.00,WeatherDisplay:10.37,2013-06-07 12:15:00,
2013-06-07 05:20:00,69.3,50.4,29.71,WNW,294,0.0,0.0,51,0.00,CLR,,0.00,WeatherDisplay:10.37,2013-06-07 12:20:00,
2013-06-07 05:25:00,69.3,50.4,29.72,WNW,294,0.0,0.0,51,0.00,CLR,,0.00,WeatherDisplay:10.37,2013-06-07 12:25:00,
2013-06-07 05:30:00,69.1,50.2,29.72,WNW,294,0.0,0.0,51,0.00,CLR,,0.00,WeatherDisplay:10.37,2013-06-07 12:30:00,
2013-06-07 05:35:00,69.1,50.2,29.71,WNW,294,0.0,0.0,51,0.00,CLR,,0.00,WeatherDisplay:10.37,2013-06-07 12:35:00,
2013-06-07 05:40:00,69.1,50.2,29.71,WNW,294,0.0,0.0,51,0.00,CLR,,0.00,WeatherDisplay:10.37,2013-06-07 12:40:00,
2013-06-07 05:45:00,68.9,50.0,29.72,WNW,294,0.0,0.0,51,0.00,CLR,,0.00,WeatherDisplay:10.37,2013-06-07 12:45:00,
2013-06-07 05:50:00,68.9,50.0,29.72,WNW,294,0.0,0.0,51,0.00,CLR,,0.00,WeatherDisplay:10.37,2013-06-07 12:50:00,
2013-06-07 05:55:00,68.9,50.0,29.72,WNW,294,0.0,0.0,51,0.00,CLR,,0.00,WeatherDisplay:10.37,2013-06-07 12:55:00,
2013-06-07 06:00:00,68.7,49.9,29.72,WNW,294,0.0,0.0,51,0.00,CLR,,0.00,WeatherDisplay:10.37,2013-06-07 13:00:00,
2013-06-07 06:05:00,68.7,49.9,29.72,WNW,294,0.0,0.0,51,0.00,CLR,,0.00,WeatherDisplay:10.37,2013-06-07 13:05:00,
2013-06-07 06:10:00,68.7,49.9,29.72,WNW,294,0.0,0.0,51,0.00,CLR,,0.00,WeatherDisplay:10.37,2013-06-07 13:10:00,
2013-06-07 06:15:00,68.7,49.9,29.72,WNW,294,0.0,0.0,51,0.00,CLR,,0.00,WeatherDisplay:10.37,2013-06-07 13:15:00,
2013-06-07 06:20:00,68.7,49.9,29.73,WNW,294,0.0,0.0,51,0.00,CLR,,0.00,WeatherDisplay:10.37,2013-06-07 13:20:00,
2013-06-07 06:25:00,68.5,49.7,29.72,WNW,294,0.0,0.0,51,0.00,CLR,,0.00,WeatherDisplay:10.37,2013-06-07 13:25:00,
2013-06-07 06:30:00,68.5,49.7,29.72,WNW,294,0.0,0.0,51,0.00,CLR,,0.00,WeatherDisplay:10.37,2013-06-07 13:30:00,
2013-06-07 06:35:00,68.5,49.7,29.71,WNW,294,0.0,0.0,51,0.00,CLR,,0.00,WeatherDisplay:10.37,2013-06-07 13:35:00,
2013-06-07 06:40:00,68.5,49.7,29.71,WNW,294,0.0,0.0,51,0.00,CLR,,0.00,WeatherDisplay:10.37,2013-06-07 13:40:00,
2013-06-07 06:45:00,68.4,49.5,29.71,WNW,294,0.0,0.0,51,0.00,CLR,,0.00,WeatherDisplay:10.37,2013-06-07 13:45:00,
2013-06-07 06:50:00,68.4,49.5,29.72,WNW,294,0.0,0.0,51,0.00,CLR,,0.00,WeatherDisplay:10.37,2013-06-07 13:50:00,
2013-06-07 06:55:00,68.4,49.5,29.72,WNW,294,0.0,0.0,51,0.00,CLR,,0.00,WeatherDisplay:10.37,2013-06-07 13:55:00,
2013-06-07 07:00:00,68.2,49.4,29.72,WNW,294,0.0,0.0,51,0.00,CLR,,0.00,WeatherDisplay:10.37,2013-06-07 14:00:00,
2013-06-07 07:05:00,68.2,49.4,29.72,WNW,294,0.0,0.0,51,0.00,CLR,,0.00,WeatherDisplay:10.37,2013-06-07 14:05:00,
2013-06-07 07:10:00,68.2,49.4,29.72,WNW,294,0.0,0.0,51,0.00,CLR,,0.00,WeatherDisplay:10.37,2013-06-07 14:10:00,
2013-06-07 07:15:00,68.2,49.4,29.72,WNW,294,0.0,0.0,51,0.00,CLR,,0.00,WeatherDisplay:10.37,2013-06-07 14:15:00,
2013-06-07 07:20:00,68.2,49.4,29.72,WNW,294,0.0,0.0,51,0.00,CLR,,0.00,WeatherDisplay:10.37,2013-06-07 14:20:00,
2013-06-07 07:25:00,68.2,49.4,29.74,WNW,294,0.0,0.0,51,0.00,CLR,,0.00,WeatherDisplay:10.37,2013-06-07 14:25:00,
2013-06-07 07:30:00,68.2,49.4,29.73,WNW,294,0.0,0.0,51,0.00,CLR,,0.00,WeatherDisplay:10.37,2013-06-07 14:30:00,
2013-06-07 07:35:00,68.0,49.2,29.73,WNW,294,0.0,0.0,51,0.00,CLR,,0.00,WeatherDisplay:10.37,2013-06-07 14:35:00,
2013-06-07 07:40:00,68.0,49.2,29.73,WNW,294,0.0,0.0,51,0.00,CLR,,0.00,WeatherDisplay:10.37,2013-06-07 14:40:00,
2013-06-07 07:46:00,67.8,49.0,29.72,WNW,294,0.0,0.0,51,0.00,CLR,,0.00,WeatherDisplay:10.37,2013-06-07 14:46:00,
2013-06-07 07:51:00,67.8,49.0,29.72,WNW,294,0.0,0.0,51,0.00,CLR,,0.00,WeatherDisplay:10.37,2013-06-07 14:51:00,
2013-06-07 07:56:00,67.8,49.0,29.72,WNW,294,0.0,0.0,51,0.00,CLR,,0.00,WeatherDisplay:10.37,2013-06-07 14:56:00,
2013-06-07 08:01:00,67.8,49.0,29.72,WNW,294,0.0,0.0,51,0.00,CLR,,0.00,WeatherDisplay:10.37,2013-06-07 15:01:00,
2013-06-07 08:06:00,67.8,49.0,29.72,WNW,294,0.0,0.0,51,0.00,CLR,,0.00,WeatherDisplay:10.37,2013-06-07 15:06:00,
2013-06-07 08:12:00,67.8,49.5,29.73,WNW,294,0.0,0.0,52,0.00,CLR,,0.00,WeatherDisplay:10.37,2013-06-07 15:12:00,
2013-06-07 08:17:00,67.8,49.5,29.73,WNW,294,0.0,0.0,52,0.00,CLR,,0.00,WeatherDisplay:10.37,2013-06-07 15:17:00,
2013-06-07 08:22:00,67.8,49.5,29.73,WNW,294,0.0,0.0,52,0.00,CLR,,0.00,WeatherDisplay:10.37,2013-06-07 15:22:00,
2013-06-07 08:27:00,67.8,49.5,29.72,WNW,294,0.0,0.0,52,0.00,CLR,,0.00,WeatherDisplay:10.37,2013-06-07 15:27:00,
2013-06-07 08:32:00,67.8,49.5,29.73,WNW,294,0.0,0.0,52,0.00,CLR,,0.00,WeatherDisplay:10.37,2013-06-07 15:32:00,
2013-06-07 08:37:00,67.8,49.5,29.73,WNW,294,0.0,0.0,52,0.00,CLR,,0.00,WeatherDisplay:10.37,2013-06-07 15:37:00,
2013-06-07 08:42:00,67.8,49.5,29.73,WNW,294,0.0,0.0,52,0.00,CLR,,0.00,WeatherDisplay:10.37,2013-06-07 15:42:00,
2013-06-07 08:48:00,67.8,49.5,29.73,WNW,294,0.0,0.0,52,0.00,CLR,,0.00,WeatherDisplay:10.37,2013-06-07 15:48:00,
2013-06-07 08:53:00,67.8,49.5,29.72,WNW,294,0.0,0.0,52,0.00,CLR,,0.00,WeatherDisplay:10.37,2013-06-07 15:53:00,
2013-06-07 08:58:00,67.8,49.5,29.72,WNW,294,0.0,0.0,52,0.00,CLR,,0.00,WeatherDisplay:10.37,2013-06-07 15:58:00,
2013-06-07 09:03:00,67.8,49.5,29.73,WNW,294,0.0,0.0,52,0.00,CLR,,0.00,WeatherDisplay:10.37,2013-06-07 16:03:00,
2013-06-07 09:08:00,67.8,49.5,29.73,WNW,294,0.0,0.0,52,0.00,CLR,,0.00,WeatherDisplay:10.37,2013-06-07 16:08:00,
2013-06-07 09:13:00,67.8,49.5,29.72,WNW,294,0.0,0.0,52,0.00,CLR,,0.00,WeatherDisplay:10.37,2013-06-07 16:13:00,
2013-06-07 09:18:00,67.8,49.5,29.73,WNW,294,0.0,0.0,52,0.00,CLR,,0.00,WeatherDisplay:10.37,2013-06-07 16:18:00,
2013-06-07 09:23:00,67.8,49.5,29.74,WNW,294,0.0,0.0,52,0.00,CLR,,0.00,WeatherDisplay:10.37,2013-06-07 16:23:00,
2013-06-07 09:28:00,67.8,49.5,29.73,WNW,294,0.0,0.0,52,0.00,CLR,,0.00,WeatherDisplay:10.37,2013-06-07 16:28:00,
2013-06-07 09:33:00,67.8,49.5,29.74,WNW,294,0.0,0.0,52,0.00,CLR,,0.00,WeatherDisplay:10.37,2013-06-07 16:33:00,
2013-06-07 09:38:00,67.8,49.5,29.73,WNW,294,0.0,0.0,52,0.00,CLR,,0.00,WeatherDisplay:10.37,2013-06-07 16:38:00,
2013-06-07 09:43:00,67.8,49.5,29.73,WNW,294,0.0,0.0,52,0.00,CLR,,0.00,WeatherDisplay:10.37,2013-06-07 16:43:00,
2013-06-07 09:48:00,67.8,49.5,29.73,WNW,294,0.0,0.0,52,0.00,CLR,,0.00,WeatherDisplay:10.37,2013-06-07 16:48:00,
2013-06-07 09:53:00,67.8,49.5,29.73,WNW,294,0.0,0.0,52,0.00,CLR,,0.00,WeatherDisplay:10.37,2013-06-07 16:53:00,
2013-06-07 09:58:00,67.8,49.5,29.73,WNW,294,0.0,0.0,52,0.00,CLR,,0.00,WeatherDisplay:10.37,2013-06-07 16:58:00,
2013-06-07 10:03:00,67.6,49.4,29.74,WNW,294,0.0,0.0,52,0.00,CLR,,0.00,WeatherDisplay:10.37,2013-06-07 17:03:00,
2013-06-07 10:08:00,67.8,49.5,29.74,WNW,294,0.0,0.0,52,0.00,CLR,,0.00,WeatherDisplay:10.37,2013-06-07 17:08:00,
2013-06-07 10:13:00,67.6,49.4,29.74,WNW,294,0.0,0.0,52,0.00,CLR,,0.00,WeatherDisplay:10.37,2013-06-07 17:13:00,
2013-06-07 10:18:00,67.6,49.4,29.74,WNW,294,0.0,0.0,52,0.00,CLR,,0.00,WeatherDisplay:10.37,2013-06-07 17:18:00,
2013-06-07 10:23:00,67.8,49.5,29.74,WNW,294,0.0,0.0,52,0.00,CLR,,0.00,WeatherDisplay:10.37,2013-06-07 17:23:00,
2013-06-07 10:28:00,67.8,49.5,29.74,WNW,294,0.0,0.0,52,0.00,CLR,,0.00,WeatherDisplay:10.37,2013-06-07 17:28:00,
2013-06-07 10:33:00,67.6,49.4,29.74,WNW,294,0.0,0.0,52,0.00,CLR,,0.00,WeatherDisplay:10.37,2013-06-07 17:33:00,
2013-06-07 10:38:00,67.8,49.5,29.74,WNW,294,0.0,0.0,52,0.00,CLR,,0.00,WeatherDisplay:10.37,2013-06-07 17:38:00,
2013-06-07 10:43:00,67.8,49.5,29.74,WNW,294,0.0,0.0,52,0.00,CLR,,0.00,WeatherDisplay:10.37,2013-06-07 17:43:00,
2013-06-07 10:48:00,67.6,49.4,29.74,WNW,294,0.0,0.0,52,0.00,CLR,,0.00,WeatherDisplay:10.37,2013-06-07 17:48:00,
2013-06-07 10:53:00,67.6,49.4,29.74,WNW,294,0.0,0.0,52,0.00,CLR,,0.00,WeatherDisplay:10.37,2013-06-07 17:53:00,
2013-06-07 10:58:00,67.8,49.5,29.75,WNW,294,0.0,0.0,52,0.00,CLR,,0.00,WeatherDisplay:10.37,2013-06-07 17:58:00,
2013-06-07 11:03:00,67.8,49.5,29.75,WNW,294,0.0,0.0,52,0.00,CLR,,0.00,WeatherDisplay:10.37,2013-06-07 18:03:00,
2013-06-07 11:08:00,67.8,49.5,29.75,WNW,294,0.0,0.0,52,0.00,CLR,,0.00,WeatherDisplay:10.37,2013-06-07 18:08:00,
2013-06-07 11:13:00,67.6,49.4,29.75,WNW,294,0.0,0.0,52,0.00,CLR,,0.00,WeatherDisplay:10.37,2013-06-07 18:13:00,
2013-06-07 11:18:00,67.6,49.4,29.74,WNW,294,0.0,0.0,52,0.00,CLR,,0.00,WeatherDisplay:10.37,2013-06-07 18:18:00,
2013-06-07 11:23:00,67.6,49.4,29.74,WNW,294,0.0,0.0,52,0.00,CLR,,0.00,WeatherDisplay:10.37,2013-06-07 18:23:00,
2013-06-07 11:28:00,67.6,49.4,29.75,WNW,294,0.0,0.0,52,0.00,CLR,,0.00,WeatherDisplay:10.37,2013-06-07 18:28:00,
2013-06-07 11:34:00,67.8,49.5,29.75,WNW,294,0.0,0.0,52,0.00,CLR,,0.00,WeatherDisplay:10.37,2013-06-07 18:34:00,
2013-06-07 11:40:00,67.6,49.4,29.75,WNW,294,0.0,0.0,52,0.00,CLR,,0.00,WeatherDisplay:10.37,2013-06-07 18:40:00,
2013-06-07 11:45:00,67.8,49.5,29.75,WNW,294,0.0,0.0,52,0.00,CLR,,0.00,WeatherDisplay:10.37,2013-06-07 18:45:00,
2013-06-07 11:51:00,67.8,49.5,29.75,WNW,294,0.0,0.0,52,0.00,CLR,,0.00,WeatherDisplay:10.37,2013-06-07 18:51:00,
2013-06-07 11:56:00,67.6,49.4,29.75,WNW,294,0.0,0.0,52,0.00,CLR,,0.00,WeatherDisplay:10.37,2013-06-07 18:56:00,
2013-06-07 12:01:00,67.8,49.5,29.75,WNW,294,0.0,0.0,52,0.00,CLR,,0.00,WeatherDisplay:10.37,2013-06-07 19:01:00,
2013-06-07 12:08:00,67.8,49.5,29.74,WNW,294,0.0,0.0,52,0.00,CLR,,0.00,WeatherDisplay:10.37,2013-06-07 19:08:00,
2013-06-07 12:14:00,67.8,49.5,29.74,WNW,294,0.0,0.0,52,0.00,CLR,,0.00,WeatherDisplay:10.37,2013-06-07 19:14:00,
2013-06-07 12:19:00,67.8,49.5,29.74,WNW,294,0.0,0.0,52,0.00,CLR,,0.00,WeatherDisplay:10.37,2013-06-07 19:19:00,
2013-06-07 12:24:00,67.8,49.5,29.75,WNW,294,0.0,0.0,52,0.00,CLR,,0.00,WeatherDisplay:10.37,2013-06-07 19:24:00,
2013-06-07 12:29:00,67.8,49.5,29.75,WNW,294,0.0,0.0,52,0.00,CLR,,0.00,WeatherDisplay:10.37,2013-06-07 19:29:00,
2013-06-07 12:35:00,67.8,49.5,29.75,WNW,294,0.0,0.0,52,0.00,CLR,,0.00,WeatherDisplay:10.37,2013-06-07 19:35:00,
2013-06-07 12:41:00,67.8,49.5,29.75,WNW,294,0.0,0.0,52,0.00,CLR,,0.00,WeatherDisplay:10.37,2013-06-07 19:41:00,
2013-06-07 12:48:00,67.8,49.5,29.75,WNW,294,0.0,0.0,52,0.00,CLR,,0.00,WeatherDisplay:10.37,2013-06-07 19:48:00,
2013-06-07 12:53:00,67.8,49.5,29.75,WNW,294,0.0,0.0,52,0.00,CLR,,0.00,WeatherDisplay:10.37,2013-06-07 19:53:00,
2013-06-07 12:58:00,67.8,49.5,29.75,WNW,294,0.0,0.0,52,0.00,CLR,,0.00,WeatherDisplay:10.37,2013-06-07 19:58:00,
2013-06-07 13:03:00,67.8,49.5,29.75,WNW,294,0.0,0.0,52,0.00,CLR,,0.00,WeatherDisplay:10.37,2013-06-07 20:03:00,
2013-06-07 13:08:00,67.8,49.5,29.75,WNW,294,0.0,0.0,52,0.00,CLR,,0.00,WeatherDisplay:10.37,2013-06-07 20:08:00,
2013-06-07 13:13:00,67.8,49.5,29.76,WNW,294,0.0,0.0,52,0.00,CLR,,0.00,WeatherDisplay:10.37,2013-06-07 20:13:00,
2013-06-07 13:18:00,67.8,49.5,29.75,WNW,294,0.0,0.0,52,0.00,CLR,,0.00,WeatherDisplay:10.37,2013-06-07 20:18:00,
2013-06-07 13:23:00,67.8,49.5,29.75,WNW,294,0.0,0.0,52,0.00,CLR,,0.00,WeatherDisplay:10.37,2013-06-07 20:23:00,
2013-06-07 13:28:00,67.8,49.5,29.75,WNW,294,0.0,0.0,52,0.00,CLR,,0.00,WeatherDisplay:10.37,2013-06-07 20:28:00,
2013-06-07 13:34:00,67.8,49.5,29.75,WNW,294,0.0,0.0,52,0.00,CLR,,0.00,WeatherDisplay:10.37,2013-06-07 20:34:00,
2013-06-07 13:39:00,67.8,49.5,29.75,WNW,294,0.0,0.0,52,0.00,CLR,,0.00,WeatherDisplay:10.37,2013-06-07 20:39:00,
2013-06-07 13:44:00,67.8,49.5,29.74,WNW,294,0.0,0.0,52,0.00,CLR,,0.00,WeatherDisplay:10.37,2013-06-07 20:44:00,
2013-06-07 13:50:00,67.8,49.5,29.74,WNW,294,0.0,0.0,52,0.00,CLR,,0.00,WeatherDisplay:10.37,2013-06-07 20:50:00,
2013-06-07 13:55:00,67.8,49.5,29.74,WNW,294,0.0,0.0,52,0.00,CLR,,0.00,WeatherDisplay:10.37,2013-06-07 20:55:00,
2013-06-07 14:00:00,67.8,49.5,29.74,WNW,294,0.0,0.0,52,0.00,CLR,,0.00,WeatherDisplay:10.37,2013-06-07 21:00:00,
2013-06-07 14:05:00,67.8,49.5,29.74,WNW,294,0.0,0.0,52,0.00,CLR,,0.00,WeatherDisplay:10.37,2013-06-07 21:05:00,
2013-06-07 14:11:00,67.8,49.5,29.74,WNW,294,0.0,0.0,52,0.00,CLR,,0.00,WeatherDisplay:10.37,2013-06-07 21:11:00,
2013-06-07 14:16:00,67.8,49.5,29.74,WNW,294,0.0,0.0,52,0.00,CLR,,0.00,WeatherDisplay:10.37,2013-06-07 21:16:00,
2013-06-07 14:22:00,67.8,49.5,29.74,WNW,294,0.0,0.0,52,0.00,CLR,,0.00,WeatherDisplay:10.37,2013-06-07 21:22:00,
2013-06-07 14:27:00,67.8,49.5,29.74,WNW,294,0.0,0.0,52,0.00,CLR,,0.00,WeatherDisplay:10.37,2013-06-07 21:27:00,
2013-06-07 14:33:00,67.8,49.5,29.75,WNW,294,0.0,0.0,52,0.00,CLR,,0.00,WeatherDisplay:10.37,2013-06-07 21:33:00,
2013-06-07 14:38:00,67.8,49.5,29.75,WNW,294,0.0,0.0,52,0.00,CLR,,0.00,WeatherDisplay:10.37,2013-06-07 21:38:00,
2013-06-07 14:43:00,67.8,49.5,29.75,WNW,294,0.0,0.0,52,0.00,CLR,,0.00,WeatherDisplay:10.37,2013-06-07 21:43:00,
2013-06-07 14:48:00,67.8,49.5,29.74,WNW,294,0.0,0.0,52,0.00,CLR,,0.00,WeatherDisplay:10.37,2013-06-07 21:48:00,
2013-06-07 14:53:00,67.8,49.5,29.75,WNW,294,0.0,0.0,52,0.00,CLR,,0.00,WeatherDisplay:10.37,2013-06-07 21:53:00,
2013-06-07 14:58:00,67.8,49.5,29.74,WNW,294,0.0,0.0,52,0.00,CLR,,0.00,WeatherDisplay:10.37,2013-06-07 21:58:00,
2013-06-07 15:03:00,67.8,49.5,29.75,WNW,294,0.0,0.0,52,0.00,CLR,,0.00,WeatherDisplay:10.37,2013-06-07 22:03:00,
2013-06-07 15:08:00,67.8,49.5,29.75,WNW,294,0.0,0.0,52,0.00,CLR,,0.00,WeatherDisplay:10.37,2013-06-07 22:08:00,
2013-06-07 15:14:00,67.8,49.5,29.75,WNW,294,0.0,0.0,52,0.00,CLR,,0.00,WeatherDisplay:10.37,2013-06-07 22:14:00,
2013-06-07 15:19:00,68.0,49.7,29.75,WNW,294,0.0,0.0,52,0.00,CLR,,0.00,WeatherDisplay:10.37,2013-06-07 22:19:00,
2013-06-07 15:24:00,67.8,49.5,29.75,WNW,294,0.0,0.0,52,0.00,CLR,,0.00,WeatherDisplay:10.37,2013-06-07 22:24:00,
2013-06-07 15:29:00,68.0,49.7,29.75,WNW,294,0.0,0.0,52,0.00,CLR,,0.00,WeatherDisplay:10.37,2013-06-07 22:29:00,
2013-06-07 15:34:00,68.0,49.7,29.76,WNW,294,0.0,0.0,52,0.00,CLR,,0.00,WeatherDisplay:10.37,2013-06-07 22:34:00,
2013-06-07 15:39:00,68.0,49.7,29.76,WNW,294,0.0,0.0,52,0.00,CLR,,0.00,WeatherDisplay:10.37,2013-06-07 22:39:00,
2013-06-07 15:44:00,68.2,49.9,29.76,WNW,294,0.0,0.0,52,0.00,CLR,,0.00,WeatherDisplay:10.37,2013-06-07 22:44:00,
2013-06-07 15:49:00,68.2,49.9,29.76,WNW,294,0.0,0.0,52,0.00,CLR,,0.00,WeatherDisplay:10.37,2013-06-07 22:49:00,
2013-06-07 15:54:00,68.2,49.9,29.76,WNW,294,0.0,0.0,52,0.00,CLR,,0.00,WeatherDisplay:10.37,2013-06-07 22:54:00,
2013-06-07 15:59:00,68.2,49.9,29.76,WNW,294,0.0,0.0,52,0.00,CLR,,0.00,WeatherDisplay:10.37,2013-06-07 22:59:00,
2013-06-07 16:04:00,68.2,49.9,29.76,WNW,294,0.0,0.0,52,0.00,CLR,,0.00,WeatherDisplay:10.37,2013-06-07 23:04:00,
2013-06-07 16:09:00,68.2,49.9,29.76,WNW,294,0.0,0.0,52,0.00,CLR,,0.00,WeatherDisplay:10.37,2013-06-07 23:09:00,
2013-06-07 16:14:00,68.2,49.9,29.76,WNW,294,0.0,0.0,52,0.00,CLR,,0.00,WeatherDisplay:10.37,2013-06-07 23:14:00,
2013-06-07 16:19:00,68.2,49.9,29.76,WNW,294,0.0,0.0,52,0.00,CLR,,0.00,WeatherDisplay:10.37,2013-06-07 23:19:00,
2013-06-07 16:24:00,68.2,49.9,29.76,WNW,294,0.0,0.0,52,0.00,CLR,,0.00,WeatherDisplay:10.37,2013-06-07 23:24:00,
2013-06-07 16:30:00,68.2,50.4,29.76,WNW,294,0.0,0.0,53,0.00,CLR,,0.00,WeatherDisplay:10.37,2013-06-07 23:30:00,
2013-06-07 16:35:00,68.2,50.4,29.76,WNW,294,0.0,0.0,53,0.00,CLR,,0.00,WeatherDisplay:10.37,2013-06-07 23:35:00,
2013-06-07 16:41:00,68.2,50.4,29.76,WNW,294,0.0,0.0,53,0.00,CLR,,0.00,WeatherDisplay:10.37,2013-06-07 23:41:00,
2013-06-07 16:46:00,68.4,50.6,29.76,WNW,294,0.0,0.0,53,0.00,CLR,,0.00,WeatherDisplay:10.37,2013-06-07 23:46:00,
2013-06-07 16:52:00,68.4,50.6,29.75,WNW,294,0.0,0.0,53,0.00,CLR,,0.00,WeatherDisplay:10.37,2013-06-07 23:52:00,
2013-06-07 16:57:00,68.4,50.6,29.76,WNW,294,0.0,0.0,53,0.00,CLR,,0.00,WeatherDisplay:10.37,2013-06-07 23:57:00,
2013-06-07 17:02:00,68.4,50.6,29.76,WNW,294,0.0,0.0,53,0.00,CLR,,0.00,WeatherDisplay:10.37,2013-06-08 00:02:00,
2013-06-07 17:07:00,68.4,50.6,29.76,WNW,294,0.0,0.0,53,0.00,CLR,,0.00,WeatherDisplay:10.37,2013-06-08 00:07:00,
2013-06-07 17:12:00,68.4,50.6,29.76,WNW,294,0.0,0.0,53,0.00,CLR,,0.00,WeatherDisplay:10.37,2013-06-08 00:12:00,
2013-06-07 17:17:00,68.4,50.6,29.76,WNW,294,0.0,0.0,53,0.00,CLR,,0.00,WeatherDisplay:10.37,2013-06-08 00:17:00,
2013-06-07 17:22:00,68.5,50.7,29.76,WNW,294,0.0,0.0,53,0.00,CLR,,0.00,WeatherDisplay:10.37,2013-06-08 00:22:00,
2013-06-07 17:27:00,68.5,50.7,29.76,WNW,294,0.0,0.0,53,0.00,CLR,,0.00,WeatherDisplay:10.37,2013-06-08 00:27:00,
2013-06-07 17:32:00,68.5,50.7,29.76,WNW,294,0.0,0.0,53,0.00,CLR,,0.00,WeatherDisplay:10.37,2013-06-08 00:32:00,
2013-06-07 17:37:00,68.5,50.7,29.76,WNW,294,0.0,0.0,53,0.00,CLR,,0.00,WeatherDisplay:10.37,2013-06-08 00:37:00,
2013-06-07 17:42:00,68.5,50.7,29.76,WNW,294,0.0,0.0,53,0.00,CLR,,0.00,WeatherDisplay:10.37,2013-06-08 00:42:00,
2013-06-07 17:47:00,68.5,50.7,29.76,WNW,294,0.0,0.0,53,0.00,CLR,,0.00,WeatherDisplay:10.37,2013-06-08 00:47:00,
2013-06-07 17:52:00,68.5,50.7,29.76,WNW,294,0.0,0.0,53,0.00,CLR,,0.00,WeatherDisplay:10.37,2013-06-08 00:52:00,
2013-06-07 17:58:00,68.7,50.9,29.76,WNW,294,0.0,0.0,53,0.00,CLR,,0.00,WeatherDisplay:10.37,2013-06-08 00:58:00,
2013-06-07 18:03:00,68.7,50.9,29.77,WNW,294,0.0,0.0,53,0.00,CLR,,0.00,WeatherDisplay:10.37,2013-06-08 01:03:00,
2013-06-07 18:08:00,68.7,50.9,29.76,WNW,294,0.0,0.0,53,0.00,CLR,,0.00,WeatherDisplay:10.37,2013-06-08 01:08:00,
2013-06-07 18:14:00,68.7,50.9,29.76,WNW,294,0.0,0.0,53,0.00,CLR,,0.00,WeatherDisplay:10.37,2013-06-08 01:14:00,
2013-06-07 18:19:00,68.7,50.9,29.76,WNW,294,0.0,0.0,53,0.00,CLR,,0.00,WeatherDisplay:10.37,2013-06-08 01:19:00,
2013-06-07 18:24:00,68.7,50.9,29.76,WNW,294,0.0,0.0,53,0.00,CLR,,0.00,WeatherDisplay:10.37,2013-06-08 01:24:00,
2013-06-07 18:30:00,68.7,50.9,29.76,WNW,294,0.0,0.0,53,0.00,CLR,,0.00,WeatherDisplay:10.37,2013-06-08 01:30:00,
2013-06-07 18:35:00,68.7,50.9,29.76,WNW,294,0.0,0.0,53,0.00,CLR,,0.00,WeatherDisplay:10.37,2013-06-08 01:35:00,
2013-06-07 18:42:00,68.7,50.9,29.76,WNW,294,0.0,0.0,53,0.00,CLR,,0.00,WeatherDisplay:10.37,2013-06-08 01:42:00,
2013-06-07 18:47:00,68.7,50.9,29.76,WNW,294,0.0,0.0,53,0.00,CLR,,0.00,WeatherDisplay:10.37,2013-06-08 01:47:00,
2013-06-07 18:52:00,68.7,50.9,29.76,WNW,294,0.0,0.0,53,0.00,CLR,,0.00,WeatherDisplay:10.37,2013-06-08 01:52:00,
2013-06-07 18:57:00,68.9,51.1,29.77,WNW,294,0.0,0.0,53,0.00,CLR,,0.00,WeatherDisplay:10.37,2013-06-08 01:57:00,
2013-06-07 19:03:00,68.9,51.1,29.77,WNW,294,0.0,0.0,53,0.00,CLR,,0.00,WeatherDisplay:10.37,2013-06-08 02:03:00,
2013-06-07 19:08:00,68.9,51.1,29.77,WNW,294,0.0,0.0,53,0.00,CLR,,0.00,WeatherDisplay:10.37,2013-06-08 02:08:00,
2013-06-07 19:13:00,68.9,51.1,29.77,WNW,294,0.0,0.0,53,0.00,CLR,,0.00,WeatherDisplay:10.37,2013-06-08 02:13:00,
2013-06-07 19:18:00,68.9,51.1,29.77,WNW,294,0.0,0.0,53,0.00,CLR,,0.00,WeatherDisplay:10.37,2013-06-08 02:18:00,
2013-06-07 19:23:00,69.1,51.2,29.77,WNW,294,0.0,0.0,53,0.00,CLR,,0.00,WeatherDisplay:10.37,2013-06-08 02:23:00,
2013-06-07 19:28:00,69.1,51.2,29.77,WNW,294,0.0,0.0,53,0.00,CLR,,0.00,WeatherDisplay:10.37,2013-06-08 02:28:00,
2013-06-07 19:33:00,69.1,51.2,29.76,WNW,294,0.0,0.0,53,0.00,CLR,,0.00,WeatherDisplay:10.37,2013-06-08 02:33:00,
2013-06-07 19:38:00,69.1,51.7,29.76,WNW,294,0.0,0.0,54,0.00,CLR,,0.00,WeatherDisplay:10.37,2013-06-08 02:38:00,
2013-06-07 19:43:00,69.1,51.7,29.76,WNW,294,0.0,0.0,54,0.00,CLR,,0.00,WeatherDisplay:10.37,2013-06-08 02:43:00,
2013-06-07 19:48:00,69.1,51.7,29.76,WNW,294,0.0,0.0,54,0.00,CLR,,0.00,WeatherDisplay:10.37,2013-06-08 02:48:00,
2013-06-07 19:53:00,69.3,51.9,29.76,WNW,294,0.0,0.0,54,0.00,CLR,,0.00,WeatherDisplay:10.37,2013-06-08 02:53:00,
2013-06-07 19:59:00,69.3,51.9,29.76,WNW,294,0.0,0.0,54,0.00,CLR,,0.00,WeatherDisplay:10.37,2013-06-08 02:59:00,
2013-06-07 20:05:00,69.3,51.9,29.76,WNW,294,0.0,0.0,54,0.00,CLR,,0.00,WeatherDisplay:10.37,2013-06-08 03:05:00,
2013-06-07 20:10:00,69.4,52.1,29.76,WNW,294,0.0,0.0,54,0.00,CLR,,0.00,WeatherDisplay:10.37,2013-06-08 03:10:00,
2013-06-07 20:15:00,69.4,52.1,29.76,WNW,294,0.0,0.0,54,0.00,CLR,,0.00,WeatherDisplay:10.37,2013-06-08 03:15:00,
2013-06-07 20:23:00,69.4,52.1,29.76,WNW,294,0.0,0.0,54,0.00,CLR,,0.00,WeatherDisplay:10.37,2013-06-08 03:23:00,
2013-06-07 20:28:00,69.4,52.1,29.76,WNW,294,0.0,0.0,54,0.00,CLR,,0.00,WeatherDisplay:10.37,2013-06-08 03:28:00,
2013-06-07 20:33:00,69.4,52.1,29.76,WNW,294,0.0,0.0,54,0.00,CLR,,0.00,WeatherDisplay:10.37,2013-06-08 03:33:00,
2013-06-07 20:38:00,69.6,52.2,29.75,WNW,294,0.0,0.0,54,0.00,CLR,,0.00,WeatherDisplay:10.37,2013-06-08 03:38:00,
2013-06-07 20:44:00,69.6,52.2,29.76,WNW,294,0.0,0.0,54,0.00,CLR,,0.00,WeatherDisplay:10.37,2013-06-08 03:44:00,
2013-06-07 20:49:00,69.6,52.2,29.76,WNW,294,0.0,0.0,54,0.00,CLR,,0.00,WeatherDisplay:10.37,2013-06-08 03:49:00,
2013-06-07 20:54:00,69.6,52.2,29.76,WNW,294,0.0,0.0,54,0.00,CLR,,0.00,WeatherDisplay:10.37,2013-06-08 03:54:00,
2013-06-07 20:59:00,69.6,52.2,29.76,WNW,294,0.0,0.0,54,0.00,CLR,,0.00,WeatherDisplay:10.37,2013-06-08 03:59:00,
2013-06-07 21:01:00,69.6,52.2,29.76,WNW,294,0.0,0.0,54,0.00,CLR,,0.00,WeatherDisplay:10.37,2013-06-08 04:01:00,
2013-06-07 21:02:00,69.6,52.2,29.76,WNW,294,0.0,0.0,54,0.00,CLR,,0.00,WeatherDisplay:10.37,2013-06-08 04:02:00,
2013-06-07 21:04:00,69.6,52.2,29.76,WNW,294,0.0,0.0,54,0.00,CLR,,0.00,WeatherDisplay:10.37,2013-06-08 04:04:00,
2013-06-07 21:05:00,69.6,52.2,29.76,WNW,294,0.0,0.0,54,0.00,CLR,,0.00,WeatherDisplay:10.37,2013-06-08 04:05:00,
2013-06-07 21:06:00,69.6,52.2,29.76,WNW,294,0.0,0.0,54,0.00,CLR,,0.00,WeatherDisplay:10.37,2013-06-08 04:06:00,
2013-06-07 21:11:00,69.6,52.2,29.76,WNW,294,0.0,0.0,54,0.00,CLR,,0.00,WeatherDisplay:10.37,2013-06-08 04:11:00,
2013-06-07 21:17:00,69.6,52.2,29.76,WNW,294,0.0,0.0,54,0.00,CLR,,0.00,WeatherDisplay:10.37,2013-06-08 04:17:00,
2013-06-07 21:22:00,69.6,52.2,29.76,WNW,294,0.0,0.0,54,0.00,CLR,,0.00,WeatherDisplay:10.37,2013-06-08 04:22:00,
2013-06-07 21:27:00,69.6,52.2,29.77,WNW,294,0.0,0.0,54,0.00,CLR,,0.00,WeatherDisplay:10.37,2013-06-08 04:27:00,
2013-06-07 21:32:00,69.6,52.2,29.77,WNW,294,0.0,0.0,54,0.00,CLR,,0.00,WeatherDisplay:10.37,2013-06-08 04:32:00,
2013-06-07 21:37:00,69.6,52.2,29.77,WNW,294,0.0,0.0,54,0.00,CLR,,0.00,WeatherDisplay:10.37,2013-06-08 04:37:00,
2013-06-07 21:42:00,69.8,52.4,29.77,WNW,294,0.0,0.0,54,0.00,CLR,,0.00,WeatherDisplay:10.37,2013-06-08 04:42:00,
2013-06-07 21:47:00,69.8,52.4,29.77,WNW,294,0.0,0.0,54,0.00,CLR,,0.00,WeatherDisplay:10.37,2013-06-08 04:47:00,
2013-06-07 21:52:00,69.8,52.4,29.78,WNW,294,0.0,0.0,54,0.00,CLR,,0.00,WeatherDisplay:10.37,2013-06-08 04:52:00,
2013-06-07 21:57:00,70.0,52.6,29.78,WNW,294,0.0,0.0,54,0.00,CLR,,0.00,WeatherDisplay:10.37,2013-06-08 04:57:00,
2013-06-07 22:02:00,70.0,52.6,29.78,WNW,294,0.0,0.0,54,0.00,CLR,,0.00,WeatherDisplay:10.37,2013-06-08 05:02:00,
2013-06-07 22:07:00,70.0,52.6,29.78,WNW,294,0.0,0.0,54,0.00,CLR,,0.00,WeatherDisplay:10.37,2013-06-08 05:07:00,
2013-06-07 22:12:00,70.0,52.6,29.78,WNW,294,0.0,0.0,54,0.00,CLR,,0.00,WeatherDisplay:10.37,2013-06-08 05:12:00,
2013-06-07 22:17:00,70.0,52.6,29.78,WNW,294,0.0,0.0,54,0.00,CLR,,0.00,WeatherDisplay:10.37,2013-06-08 05:17:00,
2013-06-07 22:22:00,70.0,52.6,29.78,WNW,294,0.0,0.0,54,0.00,CLR,,0.00,WeatherDisplay:10.37,2013-06-08 05:22:00,
2013-06-07 22:27:00,70.0,52.6,29.78,WNW,294,0.0,0.0,54,0.00,CLR,,0.00,WeatherDisplay:10.37,2013-06-08 05:27:00,
2013-06-07 22:32:00,70.0,52.6,29.78,WNW,294,0.0,0.0,54,0.00,CLR,,0.00,WeatherDisplay:10.37,2013-06-08 05:32:00,
2013-06-07 22:37:00,70.0,52.6,29.78,WNW,294,0.0,0.0,54,0.00,CLR,,0.00,WeatherDisplay:10.37,2013-06-08 05:37:00,
2013-06-07 22:42:00,70.0,52.6,29.78,WNW,294,0.0,0.0,54,0.00,CLR,,0.00,WeatherDisplay:10.37,2013-06-08 05:42:00,
2013-06-07 22:47:00,70.0,52.6,29.78,WNW,294,0.0,0.0,54,0.00,CLR,,0.00,WeatherDisplay:10.37,2013-06-08 05:47:00,
2013-06-07 22:52:00,70.0,52.6,29.78,WNW,294,0.0,0.0,54,0.00,CLR,,0.00,WeatherDisplay:10.37,2013-06-08 05:52:00,
2013-06-07 22:57:00,70.0,52.6,29.79,WNW,294,0.0,0.0,54,0.00,CLR,,0.00,WeatherDisplay:10.37,2013-06-08 05:57:00,
2013-06-07 23:02:00,70.2,52.7,29.79,WNW,294,0.0,0.0,54,0.00,CLR,,0.00,WeatherDisplay:10.37,2013-06-08 06:02:00,
2013-06-07 23:07:00,70.2,52.7,29.79,WNW,294,0.0,0.0,54,0.00,CLR,,0.00,WeatherDisplay:10.37,2013-06-08 06:07:00,
2013-06-07 23:12:00,70.2,52.7,29.79,WNW,294,0.0,0.0,54,0.00,CLR,,0.00,WeatherDisplay:10.37,2013-06-08 06:12:00,
2013-06-07 23:17:00,70.2,52.7,29.79,WNW,294,0.0,0.0,54,0.00,CLR,,0.00,WeatherDisplay:10.37,2013-06-08 06:17:00,
2013-06-07 23:22:00,70.2,52.7,29.80,WNW,294,0.0,0.0,54,0.00,CLR,,0.00,WeatherDisplay:10.37,2013-06-08 06:22:00,
2013-06-07 23:27:00,70.2,52.7,29.80,WNW,294,0.0,0.0,54,0.00,CLR,,0.00,WeatherDisplay:10.37,2013-06-08 06:27:00,
2013-06-07 23:32:00,70.2,52.7,29.80,WNW,294,0.0,0.0,54,0.00,CLR,,0.00,WeatherDisplay:10.37,2013-06-08 06:32:00,
2013-06-07 23:37:00,70.2,52.7,29.80,WNW,294,0.0,0.0,54,0.00,CLR,,0.00,WeatherDisplay:10.37,2013-06-08 06:37:00,
2013-06-07 23:42:00,70.2,52.7,29.80,WNW,294,0.0,0.0,54,0.00,CLR,,0.00,WeatherDisplay:10.37,2013-06-08 06:42:00,
2013-06-07 23:47:00,70.2,52.7,29.80,WNW,294,0.0,0.0,54,0.00,CLR,,0.00,WeatherDisplay:10.37,2013-06-08 06:47:00,
2013-06-07 23:52:00,70.2,52.7,29.80,WNW,294,0.0,0.0,54,0.00,CLR,,0.00,WeatherDisplay:10.37,2013-06-08 06:52:00,
2013-06-07 23:57:00,70.2,52.7,29.80,WNW,294,0.0,0.0,54,0.00,CLR,,0.00,WeatherDisplay:10.37,2013-06-08 06:57:00,